,,,PA_Meas_PMT16A,,PR_Meas_QMR101_102,,RH_Meas_QMH101,,SR_Meas_QMS101,,TA_Meas_QMH101,,GenWind,,GenWind,
date,time,status,PA,status,PR,status,RH,status,SR,status,TA,status,DirAvg,status,SpdAvg,
2010-08-15, 00:00:04,VALID,1006.08,VALID,0,VALID,83.2692,VALID,0,VALID,26.9167,VALID,360,VALID,0.482031,
2010-08-15, 00:01:04,VALID,1006.11,VALID,0,VALID,83.3455,VALID,0,VALID,26.8778,VALID,44,VALID,0.705859,
2010-08-15, 00:02:04,VALID,1006.08,VALID,0,VALID,83.3837,VALID,0,VALID,26.8778,VALID,28,VALID,1.63281,
2010-08-15, 00:03:04,VALID,1006.12,VALID,0,VALID,83.3531,VALID,0,VALID,26.8778,VALID,26,VALID,0.474609,
2010-08-15, 00:04:04,VALID,1006.12,VALID,0,VALID,83.4065,VALID,0,VALID,26.8583,VALID,26,VALID,0.505859,
2010-08-15, 00:05:04,VALID,1006.09,VALID,0,VALID,83.5362,VALID,0,VALID,26.7978,VALID,35,VALID,0.492969,
2010-08-15, 00:06:04,VALID,1006.13,VALID,0,VALID,83.6736,VALID,0,VALID,26.7998,VALID,79,VALID,0.510547,
2010-08-15, 00:07:04,VALID,1006.12,VALID,0,VALID,83.7651,VALID,0,VALID,26.7804,VALID,76,VALID,0.396484,
2010-08-15, 00:08:04,VALID,1006.13,VALID,0,VALID,83.7651,VALID,0,VALID,26.7589,VALID,77,VALID,0.379687,
2010-08-15, 00:09:04,VALID,1006.12,VALID,0,VALID,83.8261,VALID,0,VALID,26.7609,VALID,34,VALID,0.480469,
2010-08-15, 00:10:04,VALID,1006.12,VALID,0,VALID,83.9253,VALID,0,VALID,26.7609,VALID,30,VALID,0.248828,
2010-08-15, 00:11:04,VALID,1006.07,VALID,0,VALID,83.9635,VALID,0,VALID,26.7609,VALID,34,VALID,0.457422,
2010-08-15, 00:12:04,VALID,1006.03,VALID,0,VALID,84.055,VALID,0,VALID,26.7004,VALID,34,VALID,0.339844,
2010-08-15, 00:13:04,VALID,1006.01,VALID,0,VALID,84.1618,VALID,0,VALID,26.6614,VALID,34,VALID,0.564844,
2010-08-15, 00:14:04,VALID,1005.98,VALID,0,VALID,84.2228,VALID,0,VALID,26.683,VALID,34,VALID,0.229687,
2010-08-15, 00:15:04,VALID,1005.98,VALID,0,VALID,84.2991,VALID,0,VALID,26.6635,VALID,11,VALID,0.659375,
2010-08-15, 00:16:04,VALID,1005.98,VALID,0,VALID,84.3602,VALID,0,VALID,26.683,VALID,26,VALID,1.12031,
2010-08-15, 00:17:04,VALID,1005.99,VALID,0,VALID,84.2915,VALID,0,VALID,26.6614,VALID,2,VALID,0.662891,
2010-08-15, 00:18:04,VALID,1005.99,VALID,0,VALID,84.1466,VALID,0,VALID,26.6809,VALID,22,VALID,1.44492,
2010-08-15, 00:19:04,VALID,1006,VALID,0,VALID,83.8109,VALID,0,VALID,26.7804,VALID,360,VALID,0.64375,
2010-08-15, 00:20:04,VALID,1006.01,VALID,0,VALID,83.6812,VALID,0,VALID,26.7589,VALID,3,VALID,0.367969,
2010-08-15, 00:21:04,VALID,1006.02,VALID,0,VALID,83.6125,VALID,0,VALID,26.7998,VALID,3,VALID,0.308203,
2010-08-15, 00:22:04,VALID,1006.03,VALID,0,VALID,83.5744,VALID,0,VALID,26.7998,VALID,18,VALID,0.704297,
2010-08-15, 00:23:04,VALID,1006.03,VALID,0,VALID,83.7193,VALID,0,VALID,26.7589,VALID,84,VALID,0.332031,
2010-08-15, 00:24:04,VALID,1006.02,VALID,0,VALID,83.727,VALID,0,VALID,26.7609,VALID,15,VALID,0.433594,
2010-08-15, 00:25:04,VALID,1006,VALID,0,VALID,83.7575,VALID,0,VALID,26.7414,VALID,15,VALID,0.109766,
2010-08-15, 00:26:04,VALID,1006.01,VALID,0,VALID,83.8185,VALID,0,VALID,26.7199,VALID,16,VALID,0.416406,
2010-08-15, 00:27:04,VALID,1005.99,VALID,0,VALID,83.8567,VALID,0,VALID,26.6614,VALID,15,VALID,0.0828125,
2010-08-15, 00:28:04,VALID,1005.97,VALID,0,VALID,84.0245,VALID,0,VALID,26.6635,VALID,45,VALID,0.533984,
2010-08-15, 00:29:04,VALID,1005.97,VALID,0,VALID,84.0779,VALID,0,VALID,26.642,VALID,39,VALID,0.351953,
2010-08-15, 00:30:04,VALID,1005.98,VALID,0,VALID,84.2762,VALID,0,VALID,26.6225,VALID,14,VALID,0.45,
2010-08-15, 00:31:04,VALID,1005.99,VALID,0,VALID,84.4593,VALID,0,VALID,26.5835,VALID,14,VALID,0.220313,
2010-08-15, 00:32:04,VALID,1005.98,VALID,0,VALID,84.6195,VALID,0,VALID,26.5661,VALID,16,VALID,0.516016,
2010-08-15, 00:33:04,VALID,1005.98,VALID,0,VALID,84.8332,VALID,0,VALID,26.4881,VALID,26,VALID,0.200391,
2010-08-15, 00:34:04,VALID,1005.99,VALID,0,VALID,85.1536,VALID,0,VALID,26.3887,VALID,26,VALID,0.324219,
2010-08-15, 00:35:04,VALID,1005.97,VALID,0,VALID,85.474,VALID,0,VALID,26.3303,VALID,26,VALID,0.145313,
2010-08-15, 00:36:04,VALID,1005.99,VALID,0,VALID,85.7791,VALID,0,VALID,26.2719,VALID,26,VALID,0.423047,
2010-08-15, 00:37:04,VALID,1005.99,VALID,0,VALID,86.0614,VALID,0,VALID,26.2329,VALID,26,VALID,0.189063,
2010-08-15, 00:38:04,VALID,1005.99,VALID,0,VALID,86.2826,VALID,0,VALID,26.194,VALID,26,VALID,0.351172,
2010-08-15, 00:39:04,VALID,1005.99,VALID,0,VALID,86.4123,VALID,0,VALID,26.157,VALID,26,VALID,0.163281,
2010-08-15, 00:40:04,VALID,1006.02,VALID,0,VALID,86.6565,VALID,0,VALID,26.118,VALID,26,VALID,0.2625,
2010-08-15, 00:41:04,VALID,1005.99,VALID,0,VALID,87.0532,VALID,0,VALID,26.0985,VALID,26,VALID,0.059375,
2010-08-15, 00:42:04,VALID,1005.99,VALID,0,VALID,87.1523,VALID,0,VALID,26.0381,VALID,27,VALID,0.0410156,
2010-08-15, 00:43:04,VALID,1005.97,VALID,0,VALID,87.343,VALID,0,VALID,26.0381,VALID,32,VALID,0.240234,
2010-08-15, 00:44:04,VALID,1005.94,VALID,0,VALID,87.3125,VALID,0,VALID,26.0401,VALID,102,VALID,0.339063,
2010-08-15, 00:45:04,VALID,1005.98,VALID,0,VALID,87.2896,VALID,0,VALID,25.9992,VALID,86,VALID,0.619141,
2010-08-15, 00:46:04,VALID,1005.92,VALID,0,VALID,87.2896,VALID,0,VALID,25.9992,VALID,77,VALID,0.502344,
2010-08-15, 00:47:04,VALID,1005.91,VALID,0,VALID,87.343,VALID,0,VALID,25.9797,VALID,73,VALID,0.378516,
2010-08-15, 00:48:04,VALID,1005.87,VALID,0,VALID,87.4193,VALID,0,VALID,25.9602,VALID,48,VALID,0.548437,
2010-08-15, 00:49:04,VALID,1005.85,VALID,0,VALID,87.4804,VALID,0,VALID,25.9408,VALID,40,VALID,0.542969,
2010-08-15, 00:50:04,VALID,1005.87,VALID,0,VALID,87.5567,VALID,0,VALID,25.8434,VALID,40,VALID,0.485156,
2010-08-15, 00:51:04,VALID,1005.84,VALID,0,VALID,87.8237,VALID,0,VALID,25.744,VALID,40,VALID,0.275781,
2010-08-15, 00:52:04,VALID,1005.85,VALID,0,VALID,88.8765,VALID,0,VALID,25.6876,VALID,30,VALID,0.675781,
2010-08-15, 00:53:04,VALID,1005.86,VALID,0,VALID,89.2732,VALID,0,VALID,25.6895,VALID,30,VALID,0.0992187,
2010-08-15, 00:54:04,VALID,1005.88,VALID,0,VALID,89.5173,VALID,0,VALID,25.6486,VALID,30,VALID,0.309375,
2010-08-15, 00:55:04,VALID,1005.88,VALID,0,VALID,89.8453,VALID,0,VALID,25.6097,VALID,30,VALID,0.0664063,
2010-08-15, 00:56:04,VALID,1005.87,VALID,0,VALID,91.7831,VALID,0,VALID,25.5902,VALID,30,VALID,0.4625,
2010-08-15, 00:57:04,VALID,1005.86,VALID,0,VALID,94.1328,VALID,0,VALID,25.6116,VALID,30,VALID,0.100391,
2010-08-15, 00:58:04,VALID,1005.86,VALID,0,VALID,95.3152,VALID,0,VALID,25.5921,VALID,30,VALID,0.257031,
2010-08-15, 00:59:04,VALID,1005.84,VALID,0,VALID,98.0235,VALID,0,VALID,25.5727,VALID,30,VALID,0.482031,
2010-08-15, 01:00:04,VALID,1005.79,VALID,0,VALID,104,VALID,0,VALID,25.5123,VALID,25,VALID,0.616016,
2010-08-15, 01:01:04,VALID,1005.8,VALID,0,VALID,104,VALID,0,VALID,25.4928,VALID,22,VALID,0.591797,
2010-08-15, 01:02:04,VALID,1005.81,VALID,0,INVALID,110.336,VALID,0,VALID,25.5337,VALID,38,VALID,0.612109,
2010-08-15, 01:03:04,VALID,1005.81,VALID,0,INVALID,112.091,VALID,0,VALID,25.5513,VALID,33,VALID,0.400391,
2010-08-15, 01:04:04,VALID,1005.8,VALID,0,INVALID,111.237,VALID,0,VALID,25.6116,VALID,55,VALID,0.401953,
2010-08-15, 01:05:04,VALID,1005.77,VALID,0,INVALID,109.589,VALID,0,VALID,25.6097,VALID,67,VALID,0.473047,
2010-08-15, 01:06:04,VALID,1005.78,VALID,0,INVALID,109.139,VALID,0,VALID,25.6681,VALID,14,VALID,0.671484,
2010-08-15, 01:07:04,VALID,1005.77,VALID,0,VALID,104,VALID,0,VALID,25.7285,VALID,20,VALID,0.287109,
2010-08-15, 01:08:04,VALID,1005.75,VALID,0,VALID,98.8474,VALID,0.100563,VALID,25.7265,VALID,20,VALID,0.540625,
2010-08-15, 01:09:04,VALID,1005.76,VALID,0,VALID,97.9167,VALID,0,VALID,25.7655,VALID,32,VALID,0.697266,
2010-08-15, 01:10:04,VALID,1005.73,VALID,0,VALID,96.0629,VALID,0,VALID,25.8044,VALID,360,VALID,0.482812,
2010-08-15, 01:11:04,VALID,1005.71,VALID,0,VALID,94.7812,VALID,0,VALID,25.8434,VALID,13,VALID,0.696875,
2010-08-15, 01:12:04,VALID,1005.68,VALID,0,VALID,93.2402,VALID,0,VALID,25.8823,VALID,5,VALID,0.944922,
2010-08-15, 01:13:04,VALID,1005.63,VALID,0,VALID,91.6229,VALID,0,VALID,25.9622,VALID,27,VALID,1.13203,
2010-08-15, 01:14:04,VALID,1005.62,VALID,0,VALID,89.8758,VALID,0,VALID,26.0381,VALID,17,VALID,0.987891,
2010-08-15, 01:15:04,VALID,1005.6,VALID,0,VALID,88.9146,VALID,0,VALID,26.0966,VALID,29,VALID,1.03867,
2010-08-15, 01:16:04,VALID,1005.59,VALID,0,VALID,88.1899,VALID,0,VALID,26.1355,VALID,4,VALID,1.26133,
2010-08-15, 01:17:04,VALID,1005.55,VALID,0,VALID,87.5109,VALID,0,VALID,26.2933,VALID,360,VALID,0.908984,
2010-08-15, 01:18:04,VALID,1005.54,VALID,0,VALID,87.0455,VALID,0,VALID,26.3518,VALID,15,VALID,0.557031,
2010-08-15, 01:19:04,VALID,1005.52,VALID,0,VALID,86.7327,VALID,0,VALID,26.3498,VALID,27,VALID,0.744531,
2010-08-15, 01:20:04,VALID,1005.54,VALID,0,VALID,86.5649,VALID,0,VALID,26.3693,VALID,359,VALID,1.0168,
2010-08-15, 01:21:04,VALID,1005.52,VALID,0,VALID,86.4505,VALID,0,VALID,26.3887,VALID,31,VALID,1.46484,
2010-08-15, 01:22:04,VALID,1005.52,VALID,0,VALID,86.2674,VALID,0,VALID,26.4297,VALID,11,VALID,0.844922,
2010-08-15, 01:23:04,VALID,1005.47,VALID,0,VALID,86.0614,VALID,0,VALID,26.4277,VALID,1,VALID,0.655859,
2010-08-15, 01:24:04,VALID,1005.48,VALID,0,VALID,85.9699,VALID,0,VALID,26.4492,VALID,16,VALID,0.863672,
2010-08-15, 01:25:04,VALID,1005.47,VALID,0,VALID,86.0385,VALID,0,VALID,26.4082,VALID,359,VALID,1.05352,
2010-08-15, 01:26:04,VALID,1005.46,VALID,0,VALID,85.9699,VALID,0,VALID,26.4277,VALID,10,VALID,0.649609,
2010-08-15, 01:27:04,VALID,1005.44,VALID,0,VALID,86.0538,VALID,0,VALID,26.4297,VALID,11,VALID,0.556641,
2010-08-15, 01:28:04,VALID,1005.38,VALID,0,VALID,86.1529,VALID,0,VALID,26.3693,VALID,11,VALID,0.187891,
2010-08-15, 01:29:04,VALID,1005.36,VALID,0,VALID,86.2445,VALID,0,VALID,26.3693,VALID,21,VALID,1.20703,
2010-08-15, 01:30:04,VALID,1005.36,VALID,0,VALID,86.1835,VALID,0,VALID,26.4122,VALID,39,VALID,0.766797,
2010-08-15, 01:31:04,VALID,1005.32,VALID,0,VALID,86.1301,VALID,0,VALID,26.3713,VALID,14,VALID,0.564062,
2010-08-15, 01:32:04,VALID,1005.3,VALID,0,VALID,86.2598,VALID,0,VALID,26.3518,VALID,16,VALID,0.966406,
2010-08-15, 01:33:04,VALID,1005.26,VALID,0,VALID,86.3513,VALID,0.100563,VALID,26.3323,VALID,358,VALID,0.927344,
2010-08-15, 01:34:04,VALID,1005.25,VALID,0,VALID,86.42,VALID,0,VALID,26.3128,VALID,20,VALID,0.610547,
2010-08-15, 01:35:04,VALID,1005.22,VALID,0,VALID,86.5268,VALID,0,VALID,26.2719,VALID,18,VALID,1.64336,
2010-08-15, 01:36:04,VALID,1005.2,VALID,0,VALID,86.4047,VALID,0,VALID,26.2913,VALID,34,VALID,0.448047,
2010-08-15, 01:37:04,VALID,1005.15,VALID,0,VALID,86.4657,VALID,0,VALID,26.2719,VALID,17,VALID,0.799609,
2010-08-15, 01:38:04,VALID,1005.1,VALID,0,VALID,86.4962,VALID,0,VALID,26.2739,VALID,15,VALID,0.871484,
2010-08-15, 01:39:04,VALID,1005.1,VALID,0,VALID,86.4047,VALID,0,VALID,26.2719,VALID,11,VALID,0.855469,
2010-08-15, 01:40:04,VALID,1005.09,VALID,0,VALID,86.3513,VALID,0,VALID,26.3128,VALID,70,VALID,1.67773,
2010-08-15, 01:41:04,VALID,1005.06,VALID,0,VALID,86.0614,VALID,0,VALID,26.3323,VALID,355,VALID,0.939844,
2010-08-15, 01:42:04,VALID,1005.06,VALID,0,VALID,86.0004,VALID,0,VALID,26.3518,VALID,60,VALID,1.18945,
2010-08-15, 01:43:04,VALID,1005.05,VALID,0,VALID,85.8707,VALID,0,VALID,26.3498,VALID,29,VALID,1.1332,
2010-08-15, 01:44:04,VALID,1005.04,VALID,0,VALID,85.7715,VALID,0,VALID,26.3907,VALID,57,VALID,0.655469,
2010-08-15, 01:45:04,VALID,1005.05,VALID,0,VALID,85.5274,VALID,0,VALID,26.4492,VALID,5,VALID,0.494531,
2010-08-15, 01:46:04,VALID,1005.06,VALID,0,VALID,85.329,VALID,0,VALID,26.4667,VALID,48,VALID,1.3125,
2010-08-15, 01:47:04,VALID,1005.07,VALID,0,VALID,85.1536,VALID,0.100563,VALID,26.4861,VALID,73,VALID,0.434375,
2010-08-15, 01:48:04,VALID,1005.09,VALID,0,VALID,85.0773,VALID,0,VALID,26.5271,VALID,102,VALID,0.828125,
2010-08-15, 01:49:04,VALID,1005.12,VALID,0,VALID,85.0239,VALID,0,VALID,26.5271,VALID,119,VALID,0.85,
2010-08-15, 01:50:04,VALID,1005.15,VALID,0,VALID,85.0239,VALID,0,VALID,26.5271,VALID,126,VALID,0.880859,
2010-08-15, 01:51:04,VALID,1005.16,VALID,0,VALID,84.9857,VALID,0,VALID,26.5251,VALID,72,VALID,0.654297,
2010-08-15, 01:52:04,VALID,1005.19,VALID,0,VALID,84.8866,VALID,0,VALID,26.5056,VALID,67,VALID,0.491797,
2010-08-15, 01:53:04,VALID,1005.14,VALID,0,VALID,84.9171,VALID,0,VALID,26.4841,VALID,67,VALID,0.367188,
2010-08-15, 01:54:04,VALID,1005.14,VALID,0,VALID,84.9781,VALID,0,VALID,26.5271,VALID,73,VALID,0.275781,
2010-08-15, 01:55:04,VALID,1005.12,VALID,0,VALID,85.0773,VALID,0.100563,VALID,26.4667,VALID,92,VALID,0.31875,
2010-08-15, 01:56:04,VALID,1005.07,VALID,0,VALID,85.2222,VALID,0,VALID,26.4297,VALID,92,VALID,0.257813,
2010-08-15, 01:57:04,VALID,1005.05,VALID,0,VALID,85.4129,VALID,0,VALID,26.3887,VALID,77,VALID,0.285156,
2010-08-15, 01:58:04,VALID,1005.01,VALID,0,VALID,85.6342,VALID,0,VALID,26.3518,VALID,29,VALID,0.601172,
2010-08-15, 01:59:04,VALID,1004.98,VALID,0,VALID,85.8631,VALID,0,VALID,26.2913,VALID,23,VALID,0.501172,
2010-08-15, 02:00:04,VALID,1004.98,VALID,0,VALID,86.1758,VALID,0,VALID,26.2349,VALID,34,VALID,0.723437,
2010-08-15, 02:01:04,VALID,1005,VALID,0,VALID,86.4123,VALID,0,VALID,26.155,VALID,58,VALID,0.290234,
2010-08-15, 02:02:04,VALID,1005.03,VALID,0,VALID,86.6259,VALID,0,VALID,26.118,VALID,80,VALID,0.623047,
2010-08-15, 02:03:04,VALID,1005.03,VALID,0,VALID,86.8929,VALID,0,VALID,26.0576,VALID,91,VALID,0.114453,
2010-08-15, 02:04:04,VALID,1005.01,VALID,0,VALID,87.0913,VALID,0.100563,VALID,26.0791,VALID,78,VALID,0.71875,
2010-08-15, 02:05:04,VALID,1005.02,VALID,0,VALID,87.1142,VALID,0,VALID,25.9992,VALID,77,VALID,0.447266,
2010-08-15, 02:06:04,VALID,1005.03,VALID,0,VALID,87.221,VALID,0,VALID,25.9992,VALID,66,VALID,0.283203,
2010-08-15, 02:07:04,VALID,1004.98,VALID,0,VALID,87.2515,VALID,0,VALID,26.0012,VALID,65,VALID,0.382031,
2010-08-15, 02:08:04,VALID,1004.97,VALID,0,VALID,87.3659,VALID,0,VALID,25.9602,VALID,65,VALID,0.421484,
2010-08-15, 02:09:04,VALID,1004.9,VALID,0,VALID,87.488,VALID,0,VALID,25.9408,VALID,45,VALID,0.532031,
2010-08-15, 02:10:04,VALID,1004.87,VALID,0,VALID,87.7016,VALID,0,VALID,25.9427,VALID,13,VALID,0.748828,
2010-08-15, 02:11:04,VALID,1004.8,VALID,0,VALID,87.7092,VALID,0,VALID,25.9213,VALID,15,VALID,0.778516,
2010-08-15, 02:12:04,VALID,1004.74,VALID,0,VALID,87.9228,VALID,0.100563,VALID,25.8823,VALID,19,VALID,1.04844,
2010-08-15, 02:13:04,VALID,1004.75,VALID,0,VALID,87.9991,VALID,0,VALID,25.8823,VALID,21,VALID,0.782031,
2010-08-15, 02:14:04,VALID,1004.72,VALID,0,VALID,88.1059,VALID,0,VALID,25.8843,VALID,34,VALID,0.691797,
2010-08-15, 02:15:04,VALID,1004.69,VALID,0,VALID,88.2585,VALID,0,VALID,25.8648,VALID,33,VALID,0.467969,
2010-08-15, 02:16:04,VALID,1004.71,VALID,0,VALID,88.3119,VALID,0,VALID,25.8629,VALID,45,VALID,0.790625,
2010-08-15, 02:17:04,VALID,1004.68,VALID,0,VALID,88.3272,VALID,0,VALID,25.8843,VALID,36,VALID,0.494922,
2010-08-15, 02:18:04,VALID,1004.71,VALID,0,VALID,88.2585,VALID,0.100563,VALID,25.8823,VALID,32,VALID,0.682422,
2010-08-15, 02:19:04,VALID,1004.7,VALID,0,VALID,88.2509,VALID,0,VALID,25.8823,VALID,34,VALID,0.392578,
2010-08-15, 02:20:04,VALID,1004.67,VALID,0,VALID,88.0373,VALID,0,VALID,25.8434,VALID,47,VALID,0.145703,
2010-08-15, 02:21:04,VALID,1004.65,VALID,0,VALID,88.0525,VALID,0,VALID,25.8044,VALID,4,VALID,0.382031,
2010-08-15, 02:22:04,VALID,1004.64,VALID,0,VALID,88.4416,VALID,0,VALID,25.746,VALID,4,VALID,0.419531,
2010-08-15, 02:23:04,VALID,1004.61,VALID,0,VALID,89.0138,VALID,0,VALID,25.746,VALID,47,VALID,1.2332,
2010-08-15, 02:24:04,VALID,1004.57,VALID,0,VALID,89.0061,VALID,0,VALID,25.746,VALID,33,VALID,0.655078,
2010-08-15, 02:25:04,VALID,1004.56,VALID,0,VALID,89.1664,VALID,0.100563,VALID,25.746,VALID,34,VALID,0.720312,
2010-08-15, 02:26:04,VALID,1004.58,VALID,0,VALID,89.174,VALID,0,VALID,25.7265,VALID,28,VALID,0.606641,
2010-08-15, 02:27:04,VALID,1004.56,VALID,0,VALID,89.3723,VALID,0,VALID,25.7265,VALID,16,VALID,0.566406,
2010-08-15, 02:28:04,VALID,1004.61,VALID,0,VALID,89.235,VALID,0,VALID,25.7265,VALID,52,VALID,0.553516,
2010-08-15, 02:29:04,VALID,1004.58,VALID,0,VALID,89.2579,VALID,0,VALID,25.7285,VALID,51,VALID,0.525,
2010-08-15, 02:30:04,VALID,1004.57,VALID,0,VALID,89.3876,VALID,0,VALID,25.6876,VALID,51,VALID,0.483203,
2010-08-15, 02:31:04,VALID,1004.58,VALID,0,VALID,89.8148,VALID,0,VALID,25.7071,VALID,49,VALID,0.51875,
2010-08-15, 02:32:04,VALID,1004.56,VALID,0,VALID,89.8148,VALID,0,VALID,25.785,VALID,25,VALID,1.24766,
2010-08-15, 02:33:04,VALID,1004.55,VALID,0,VALID,88.7315,VALID,0,VALID,25.9213,VALID,26,VALID,0.905859,
2010-08-15, 02:34:04,VALID,1004.53,VALID,0,VALID,87.9305,VALID,0.100563,VALID,25.9992,VALID,41,VALID,0.378516,
2010-08-15, 02:35:04,VALID,1004.57,VALID,0,VALID,87.4422,VALID,0,VALID,25.9992,VALID,66,VALID,0.283594,
2010-08-15, 02:36:04,VALID,1004.56,VALID,0,VALID,87.2896,VALID,0,VALID,25.9602,VALID,66,VALID,0.401953,
2010-08-15, 02:37:04,VALID,1004.55,VALID,0,VALID,87.4804,VALID,0.100563,VALID,25.9018,VALID,66,VALID,0.194922,
2010-08-15, 02:38:04,VALID,1004.57,VALID,0,VALID,87.7092,VALID,0,VALID,25.8648,VALID,66,VALID,0.336719,
2010-08-15, 02:39:04,VALID,1004.6,VALID,0,VALID,87.8771,VALID,0,VALID,25.785,VALID,66,VALID,0.378906,
2010-08-15, 02:40:04,VALID,1004.61,VALID,0,VALID,88.0907,VALID,0.100563,VALID,25.7265,VALID,66,VALID,0.60625,
2010-08-15, 02:41:04,VALID,1004.62,VALID,0,VALID,88.2967,VALID,0.100563,VALID,25.6292,VALID,66,VALID,0.231641,
2010-08-15, 02:42:04,VALID,1004.64,VALID,0,VALID,88.8154,VALID,0,VALID,25.5513,VALID,69,VALID,0.527734,
2010-08-15, 02:43:04,VALID,1004.64,VALID,0,VALID,89.7156,VALID,0.100563,VALID,25.4539,VALID,73,VALID,0.383594,
2010-08-15, 02:44:04,VALID,1004.64,VALID,0,VALID,90.7684,VALID,0,VALID,25.376,VALID,76,VALID,0.178125,
2010-08-15, 02:45:04,VALID,1004.63,VALID,0,VALID,95.6814,VALID,0.100563,VALID,25.3565,VALID,30,VALID,0.560938,
2010-08-15, 02:46:04,VALID,1004.65,VALID,0,INVALID,109.818,VALID,0.100563,VALID,25.376,VALID,9,VALID,0.712109,
2010-08-15, 02:47:04,VALID,1004.63,VALID,0,INVALID,110.398,VALID,0,VALID,25.3955,VALID,10,VALID,0.444141,
2010-08-15, 02:48:04,VALID,1004.64,VALID,0,INVALID,110.047,VALID,0,VALID,25.3935,VALID,11,VALID,0.36875,
2010-08-15, 02:49:04,VALID,1004.65,VALID,0,INVALID,110.184,VALID,0,VALID,25.4539,VALID,9,VALID,0.859375,
2010-08-15, 02:50:04,VALID,1004.67,VALID,0,VALID,104,VALID,0,VALID,25.5123,VALID,26,VALID,0.280078,
2010-08-15, 02:51:04,VALID,1004.68,VALID,0,VALID,99.9383,VALID,0.100563,VALID,25.5318,VALID,65,VALID,0.208984,
2010-08-15, 02:52:04,VALID,1004.7,VALID,0,VALID,98.6109,VALID,0,VALID,25.5513,VALID,68,VALID,0.762109,
2010-08-15, 02:53:04,VALID,1004.75,VALID,0,VALID,95.9866,VALID,0.100563,VALID,25.5707,VALID,44,VALID,0.321094,
2010-08-15, 02:54:04,VALID,1004.73,VALID,0,VALID,94.4989,VALID,0.100563,VALID,25.5902,VALID,54,VALID,0.455859,
2010-08-15, 02:55:04,VALID,1004.75,VALID,0,VALID,93.4843,VALID,0,VALID,25.6116,VALID,92,VALID,0.218359,
2010-08-15, 02:56:04,VALID,1004.73,VALID,0,VALID,92.8511,VALID,0,VALID,25.6116,VALID,61,VALID,0.387109,
2010-08-15, 02:57:04,VALID,1004.76,VALID,0,VALID,92.3552,VALID,0,VALID,25.5921,VALID,61,VALID,0.389844,
2010-08-15, 02:58:04,VALID,1004.75,VALID,0,VALID,91.9967,VALID,0,VALID,25.5707,VALID,61,VALID,0.133203,
2010-08-15, 02:59:04,VALID,1004.76,VALID,0,VALID,92.073,VALID,0,VALID,25.5727,VALID,61,VALID,0,
2010-08-15, 03:00:04,VALID,1004.75,VALID,0,VALID,92.2179,VALID,0,VALID,25.5532,VALID,61,VALID,0.427344,
2010-08-15, 03:01:04,VALID,1004.77,VALID,0,VALID,92.34,VALID,0,VALID,25.5123,VALID,61,VALID,0.294531,
2010-08-15, 03:02:04,VALID,1004.79,VALID,0,VALID,92.7824,VALID,0,VALID,25.5142,VALID,61,VALID,0.360938,
2010-08-15, 03:03:04,VALID,1004.81,VALID,0,VALID,93.3241,VALID,0,VALID,25.5142,VALID,61,VALID,0.412109,
2010-08-15, 03:04:04,VALID,1004.85,VALID,0,VALID,93.2554,VALID,0,VALID,25.5337,VALID,58,VALID,0.302344,
2010-08-15, 03:05:04,VALID,1004.86,VALID,0,VALID,92.5993,VALID,0,VALID,25.4948,VALID,33,VALID,0.505859,
2010-08-15, 03:06:04,VALID,1004.86,VALID,0,VALID,92.5993,VALID,0,VALID,25.4558,VALID,30,VALID,0.458594,
2010-08-15, 03:07:04,VALID,1004.87,VALID,0,VALID,93.2936,VALID,0,VALID,25.3779,VALID,30,VALID,0.317969,
2010-08-15, 03:08:04,VALID,1004.88,VALID,0,VALID,104,VALID,0.100563,VALID,25.337,VALID,4,VALID,0.298047,
2010-08-15, 03:09:04,VALID,1004.83,VALID,0,VALID,104,VALID,0,VALID,25.3565,VALID,4,VALID,0.544922,
2010-08-15, 03:10:04,VALID,1004.82,VALID,0,INVALID,109.596,VALID,0,VALID,25.3546,VALID,4,VALID,0.478906,
2010-08-15, 03:11:04,VALID,1004.82,VALID,0,VALID,104,VALID,0.100563,VALID,25.376,VALID,4,VALID,0.461328,
2010-08-15, 03:12:04,VALID,1004.8,VALID,0,INVALID,109.886,VALID,0.100563,VALID,25.3955,VALID,4,VALID,0.378906,
2010-08-15, 03:13:04,VALID,1004.77,VALID,0,INVALID,109.421,VALID,0,VALID,25.376,VALID,4,VALID,0.386719,
2010-08-15, 03:14:04,VALID,1004.78,VALID,0,VALID,104,VALID,0.100563,VALID,25.376,VALID,4,VALID,0,
2010-08-15, 03:15:04,VALID,1004.76,VALID,0,INVALID,109.459,VALID,0.100563,VALID,25.3546,VALID,4,VALID,0.167187,
2010-08-15, 03:16:04,VALID,1004.75,VALID,0,INVALID,110.863,VALID,0,VALID,25.376,VALID,1,VALID,0.530078,
2010-08-15, 03:17:04,VALID,1004.73,VALID,0,INVALID,111.29,VALID,0,VALID,25.4344,VALID,29,VALID,0.907422,
2010-08-15, 03:18:04,VALID,1004.71,VALID,0,VALID,104,VALID,0.100563,VALID,25.4539,VALID,33,VALID,0.304297,
2010-08-15, 03:19:04,VALID,1004.72,VALID,0,VALID,102.784,VALID,0,VALID,25.4344,VALID,33,VALID,0,
2010-08-15, 03:20:04,VALID,1004.72,VALID,0,VALID,104,VALID,0.100563,VALID,25.4753,VALID,33,VALID,0.174609,
2010-08-15, 03:21:04,VALID,1004.72,VALID,0,VALID,104,VALID,0,VALID,25.4539,VALID,33,VALID,0.140234,
2010-08-15, 03:22:04,VALID,1004.71,VALID,0,VALID,104,VALID,0,VALID,25.4558,VALID,33,VALID,0.466797,
2010-08-15, 03:23:04,VALID,1004.73,VALID,0,VALID,104,VALID,0,VALID,25.4344,VALID,33,VALID,0.400781,
2010-08-15, 03:24:04,VALID,1004.74,VALID,0,VALID,100.236,VALID,0,VALID,25.4149,VALID,24,VALID,0.527734,
2010-08-15, 03:25:04,VALID,1004.74,VALID,0,VALID,101.594,VALID,0.100563,VALID,25.376,VALID,349,VALID,0.821875,
2010-08-15, 03:26:04,VALID,1004.72,VALID,0,VALID,104,VALID,0,VALID,25.2962,VALID,350,VALID,0.885547,
2010-08-15, 03:27:04,VALID,1004.73,VALID,0,INVALID,111.191,VALID,0.100563,VALID,25.2592,VALID,352,VALID,0.670703,
2010-08-15, 03:28:04,VALID,1004.69,VALID,0,INVALID,114.532,VALID,0.100563,VALID,25.2592,VALID,344,VALID,0.679688,
2010-08-15, 03:29:04,VALID,1004.66,VALID,0,INVALID,115.265,VALID,0,VALID,25.2202,VALID,359,VALID,0.533203,
2010-08-15, 03:30:04,VALID,1004.65,VALID,0,INVALID,115.753,VALID,0,VALID,25.2007,VALID,318,VALID,0.579687,
2010-08-15, 03:31:04,VALID,1004.67,VALID,0,INVALID,116.272,VALID,0,VALID,25.2397,VALID,7,VALID,0.720703,
2010-08-15, 03:32:04,VALID,1004.68,VALID,0,INVALID,116.485,VALID,0,VALID,25.2981,VALID,74,VALID,0.366797,
2010-08-15, 03:33:04,VALID,1004.7,VALID,0,INVALID,116.287,VALID,0,VALID,25.337,VALID,74,VALID,0.419531,
2010-08-15, 03:34:04,VALID,1004.71,VALID,0,INVALID,115.722,VALID,0.100563,VALID,25.2962,VALID,74,VALID,0.319141,
2010-08-15, 03:35:04,VALID,1004.72,VALID,0,INVALID,115.372,VALID,0,VALID,25.2786,VALID,74,VALID,0.588672,
2010-08-15, 03:36:04,VALID,1004.72,VALID,0,INVALID,115.562,VALID,0,VALID,25.2397,VALID,69,VALID,0.213672,
2010-08-15, 03:37:04,VALID,1004.72,VALID,0,INVALID,115.745,VALID,0,VALID,25.2007,VALID,69,VALID,0.481641,
2010-08-15, 03:38:04,VALID,1004.69,VALID,0,INVALID,116.409,VALID,0,VALID,25.2202,VALID,41,VALID,0.658984,
2010-08-15, 03:39:04,VALID,1004.7,VALID,0,INVALID,116.279,VALID,0,VALID,25.2611,VALID,40,VALID,0.325,
2010-08-15, 03:40:04,VALID,1004.7,VALID,0,INVALID,116.302,VALID,0,VALID,25.2397,VALID,32,VALID,0.692578,
2010-08-15, 03:41:04,VALID,1004.7,VALID,0,INVALID,116.569,VALID,0,VALID,25.3584,VALID,42,VALID,0.357031,
2010-08-15, 03:42:04,VALID,1004.74,VALID,0,INVALID,115.936,VALID,0.100563,VALID,25.3565,VALID,42,VALID,0.307422,
2010-08-15, 03:43:04,VALID,1004.73,VALID,0,INVALID,114.853,VALID,0,VALID,25.3565,VALID,42,VALID,0,
2010-08-15, 03:44:04,VALID,1004.77,VALID,0,INVALID,114.502,VALID,0,VALID,25.3565,VALID,42,VALID,0.256641,